Pittston, PA

12:46 PM EST on February 22, 2017 (GMT -0500)
Wilkes-Barre-Scranton International

Weather History for KAVP - October, 2013

Change the Weather History Date:

Tuesday, October 15, 2013

  Actual Average Record
Temperature  
Mean Temperature 62 °F 51 °F  
Max Temperature 73 °F 61 °F 81 °F (1947)
Min Temperature 50 °F 41 °F 29 °F (2006)
Degree Days  
Heating Degree Days 3 14  
Month to date heating degree days 54 175  
Since 1 July heating degree days 216 337  
Cooling Degree Days 0 0  
Month to date cooling degree days 24 0  
Year to date cooling degree days 795 576  
Growing Degree Days 12 (Base 50)    
Moisture  
Dew Point 50 °F    
Average Humidity 70    
Maximum Humidity 96    
Minimum Humidity 44    
Precipitation  
Precipitation 0.00 in 0.11 in 2.62 in (2014)
Month to date precipitation 0.98 1.73  
Year to date precipitation 20.90 30.83  
Sea Level Pressure  
Sea Level Pressure 30.18 in    
Wind  
Wind Speed 2 mph (East)    
Max Wind Speed 9 mph    
Max Gust Speed 20 mph    
Visibility 10 miles    
Events      
T = Trace of Precipitation, MM = Missing Value Source: NWS Daily Summary

Daily Weather History Graph

Daily Weather History Graph

Search for Another Location

Airport or City:

Trip Planner

Search our weather history database for the weather conditions in past years. The results will help you decide how hot, cold, wet, or windy it might be!

Date:

Astronomy

Oct. 15, 2013 Rise Set
Actual Time 7:14 AM EDT 6:21 PM EDT
Civil Twilight 6:47 AM EDT 6:49 PM EDT
Nautical Twilight 6:14 AM EDT 7:21 PM EDT
Astronomical Twilight 5:42 AM EDT 7:53 PM EDT
Moon 4:27 PM EDT (10/15) 3:32 AM EDT (10/15)
Length of Visible Light 12h 02m
Length of Day
11h 06m
Waxing Gibbous, 87% of the Moon is Illuminated
Oct 15
Waxing Gibbous
Oct 18
Full
Oct 26
Last Quarter
Nov 3
New
Nov 10
First Quarter

Hourly Weather History & Observations

Time (EDT) Temp. Dew Point Humidity Pressure Visibility Wind Dir Wind Speed Gust Speed Precip Events Conditions
12:54 AM 55.0 °F 51.1 °F 86% 30.26 in 10.0 mi Calm Calm - N/A   Overcast
1:54 AM 55.9 °F 52.0 °F 87% 30.25 in 10.0 mi Calm Calm - N/A   Overcast
2:54 AM 55.9 °F 52.0 °F 87% 30.24 in 10.0 mi Calm Calm - N/A   Overcast
3:54 AM 55.9 °F 52.0 °F 87% 30.23 in 10.0 mi Calm Calm - N/A   Overcast
4:54 AM 55.0 °F 52.0 °F 89% 30.22 in 10.0 mi Calm Calm - N/A   Overcast
5:54 AM 52.0 °F 50.0 °F 93% 30.22 in 8.0 mi Calm Calm - N/A   Clear
6:54 AM 50.0 °F 48.0 °F 93% 30.23 in 7.0 mi Calm Calm - N/A   Clear
7:54 AM 52.0 °F 50.0 °F 93% 30.25 in 7.0 mi East 3.5 mph - N/A   Clear
8:50 AM 55.4 °F 51.8 °F 88% 30.25 in 9.0 mi East 3.5 mph - N/A   Partly Cloudy
8:54 AM 55.0 °F 52.0 °F 89% 30.25 in 9.0 mi East 3.5 mph - N/A   Clear
9:54 AM 60.1 °F 52.0 °F 75% 30.25 in 10.0 mi Calm Calm - N/A   Clear
10:54 AM 62.1 °F 52.0 °F 70% 30.22 in 10.0 mi NNW 6.9 mph - N/A   Clear
11:54 AM 68.0 °F 52.0 °F 56% 30.19 in 10.0 mi Variable 4.6 mph - N/A   Clear
12:54 PM 70.0 °F 51.1 °F 51% 30.17 in 10.0 mi Calm Calm - N/A   Clear
1:54 PM 72.0 °F 51.1 °F 48% 30.14 in 10.0 mi West 8.1 mph - N/A   Partly Cloudy
2:54 PM 72.0 °F 50.0 °F 46% 30.11 in 10.0 mi Calm Calm - N/A   Partly Cloudy
3:54 PM 72.0 °F 48.9 °F 44% 30.10 in 10.0 mi Variable 3.5 mph - N/A   Mostly Cloudy
4:54 PM 72.0 °F 50.0 °F 46% 30.10 in 10.0 mi Variable 3.5 mph - N/A   Overcast
5:54 PM 69.1 °F 50.0 °F 51% 30.10 in 10.0 mi Variable 4.6 mph - N/A   Scattered Clouds
6:54 PM 66.0 °F 51.1 °F 59% 30.11 in 10.0 mi SSE 4.6 mph - N/A   Clear
7:54 PM 62.1 °F 51.1 °F 67% 30.12 in 10.0 mi Calm Calm - N/A   Clear
8:54 PM 62.1 °F 48.9 °F 62% 30.12 in 10.0 mi Variable 3.5 mph - N/A   Clear
9:54 PM 61.0 °F 42.1 °F 50% 30.12 in 10.0 mi Calm Calm - N/A   Clear
10:54 PM 60.1 °F 41.0 °F 49% 30.11 in 10.0 mi ENE 5.8 mph - N/A   Clear
11:54 PM 57.9 °F 39.0 °F 49% 30.10 in 10.0 mi Calm Calm - N/A   Clear